COSMOS 2251 DEB, 34340

Orbit data source: Space-Track

COSMOS 2251 DEB, 34340 is space debris in LEO originally from a launch on Wed, 16 Jun 1993 UTC launched from the Plesetsk Missile And Space Complex (PKMTR). The debris from Iridium 33, an American commercial communications satellite, has been tracked extensively since its accidental collision with the defunct Russian satellite Cosmos 2251 in 2009. This event, occurring at high speed in low Earth orbit (LEO), generated thousands of pieces of space debris, significantly increasing the risk of further collisions. The Iridium 33 debris cloud has impacted space traffic management and orbital debris mitigation strategies, making it a subject of ongoing study in space situational awareness.

Loading next visibility...
Identifier
34340, 1993-036PN
Orbit
LEO
Country
Flag of CISCIS
Related business
Manufacturer
Unknown
Mission
Spacecraft
Bus & Motor
Unknown
Mass
Unknown
Launch date (UTC)
1993-06-16 (33 years ago)
Launch vehicle
Unknown
Launch site
Plesetsk Missile And Space Complex (PKMTR)
Object type
Payload
Rocket body
Debris
Shape & HBR
Unknown shape, 0.1 m
Radar Cross Section
Medium (>0.1 m² and <1 m²)

Expand to show TLE details & history
Last TLE update: 15 hours ago

TLE from 15 hours ago
0 COSMOS 2251 DEB
1 34340U 93036PN  26257.29777856  .00000322  00000-0  24176-3 0  9998
2 34340  74.0761 207.3311 0290957 251.6597 263.2227 13.80230227880698
Epoch: 2026-09-14T07:08Z
TLE epoch observation values (Epoch: 2026-09-14T07:08:48.067Z)
Latitude
27.27401°
Longitude
-81.56375°
Altitude
997.351 km
Speed
7.34 km/s
True Right ascension
01h 15m 39s
True Declination
27° 08' 19"
Sunlit
Object was in full shadow at epoch
Visualization orbit readout
Latitude
Unknown
Longitude
Unknown
Altitude
Unknown
Speed
Unknown
Apparent Right ascension
Unknown
Apparent Declination
Unknown
Sunlit
N/A
Visualization observer readout
Local Sidereal Time
14:19:57
Azimuth
Unknown
Elevation
Unknown
Doppler factor
Unknown
Orbital elements
Apogee altitude
1,174.28 km
Perigee altitude
747.22 km
Semi-major axis
7,338.887 km
Eccentricity
0.0291
Inclination
74.0761°
RAAN
207.3311°
Arg. of periapsis
251.6597°
True anomaly
259.92784°
Mean anomaly
263.2227°
Eccentric anomaly
261.57364°
Mean motion
3.45222 °/min
Orbital period
104.28 mins
BSTAR
0.00024176

Documentation

Showing up to 5 results
|